| time (UTC) | temp C | wind direction | speed KPH | gust KPH | rain 1hr cm | rain 24hr cm | rain mn cm | humidity % | barometer mb |
| 20260902163554 | 20 | 219 | 4.8 | 12.9 | 0.00 | 0.13 | 0.13 | 73 | 1019.0 |
| 20260902163055 | 20 | 219 | 6.4 | 11.3 | 0.00 | 0.13 | 0.13 | 73 | 1019.0 |
| 20260902162555 | 20 | 265 | 4.8 | 16.1 | 0.00 | 0.13 | 0.13 | 72 | 1019.0 |
| 20260902162055 | 20 | 258 | 4.8 | 12.9 | 0.00 | 0.13 | 0.13 | 71 | 1019.1 |
| 20260902161555 | 20 | 231 | 4.8 | 16.1 | 0.00 | 0.13 | 0.13 | 70 | 1019.1 |
| 20260902161056 | 20 | 200 | 9.7 | 19.3 | 0.00 | 0.13 | 0.13 | 69 | 1019.3 |
| 20260902154555 | 20 | 229 | 8.0 | 16.1 | 0.00 | 0.13 | 0.13 | 70 | 1019.4 |
| 20260902154055 | 20 | 247 | 6.4 | 12.9 | 0.00 | 0.13 | 0.13 | 70 | 1019.5 |
| 20260902153555 | 20 | 234 | 6.4 | 16.1 | 0.00 | 0.13 | 0.13 | 70 | 1019.5 |
| 20260902153056 | 20 | 233 | 4.8 | 12.9 | 0.00 | 0.13 | 0.13 | 72 | 1019.5 |
| 20260902152555 | 20 | 202 | 8.0 | 16.1 | 0.00 | 0.13 | 0.13 | 73 | 1019.5 |
| 20260902152056 | 20 | 275 | 6.4 | 12.9 | 0.00 | 0.13 | 0.13 | 73 | 1019.5 |
| 20260902140054 | 21 | 226 | 9.7 | 20.9 | 0.00 | 0.13 | 0.13 | 65 | 1019.8 |
| 20260902135555 | 21 | 201 | 6.4 | 19.3 | 0.00 | 0.13 | 0.13 | 65 | 1019.7 |
| 20260902135055 | 21 | 243 | 12.9 | 20.9 | 0.00 | 0.13 | 0.13 | 64 | 1019.8 |
| 20260902134554 | 22 | 236 | 14.5 | 25.7 | 0.00 | 0.13 | 0.13 | 65 | 1019.8 |
| 20260902134056 | 21 | 244 | 6.4 | 19.3 | 0.00 | 0.13 | 0.13 | 67 | 1019.7 |
| 20260902133555 | 21 | 245 | 11.3 | 20.9 | 0.00 | 0.13 | 0.13 | 68 | 1019.8 |
| 20260902132055 | 21 | 263 | 12.9 | 19.3 | 0.00 | 0.13 | 0.13 | 71 | 1019.9 |
| 20260902131555 | 21 | 263 | 8.0 | 14.5 | 0.00 | 0.13 | 0.13 | 72 | 1019.9 |
| 20260902131055 | 20 | 244 | 4.8 | 14.5 | 0.00 | 0.13 | 0.13 | 74 | 1019.9 |
| 20260902125056 | 20 | 236 | 8.0 | 12.9 | 0.00 | 0.13 | 0.13 | 73 | 1019.9 |
| 20260902124056 | 20 | 267 | 4.8 | 16.1 | 0.00 | 0.13 | 0.13 | 73 | 1019.8 |
| 20260902123555 | 20 | 254 | 4.8 | 12.9 | 0.00 | 0.13 | 0.13 | 73 | 1019.9 |
| 20260902123055 | 20 | 288 | 8.0 | 14.5 | 0.00 | 0.13 | 0.13 | 72 | 1019.9 |
| 20260902122554 | 20 | 253 | 4.8 | 14.5 | 0.00 | 0.13 | 0.13 | 72 | 1019.9 |
| 20260902121055 | 20 | 281 | 8.0 | 19.3 | 0.00 | 0.13 | 0.13 | 72 | 1019.9 |
| 20260902115554 | 20 | 281 | 8.0 | 22.5 | 0.00 | 0.13 | 0.13 | 71 | 1019.9 |
| 20260902112554 | 20 | 287 | 8.0 | 19.3 | 0.00 | 0.13 | 0.13 | 81 | 1019.9 |
| 20260902112056 | 20 | 249 | 8.0 | 14.5 | 0.00 | 0.13 | 0.13 | 81 | 1020.0 |
| 20260902110054 | 18 | 232 | 4.8 | 8.0 | 0.13 | 0.13 | 0.13 | 88 | 1020.1 |
| 20260902105554 | 18 | 232 | 3.2 | 8.0 | 0.13 | 0.13 | 0.13 | 88 | 1020.0 |
| 20260902105055 | 18 | 232 | 4.8 | 11.3 | 0.13 | 0.13 | 0.13 | 88 | 1020.0 |
| 20260902104554 | 18 | 232 | 4.8 | 9.7 | 0.13 | 0.13 | 0.13 | 88 | 1020.1 |
| 20260902104054 | 18 | 227 | 3.2 | 4.8 | 0.13 | 0.13 | 0.13 | 88 | 1020.2 |
| 20260902103554 | 18 | 227 | 3.2 | 8.0 | 0.13 | 0.13 | 0.13 | 87 | 1020.1 |
| 20260902103056 | 18 | 227 | 3.2 | 8.0 | 0.13 | 0.13 | 0.13 | 87 | 1020.2 |
| 20260902100054 | 20 | 227 | 9.7 | 20.9 | 0.00 | 0.00 | 0.00 | 80 | 1020.0 |
| 20260902095554 | 20 | 255 | 8.0 | 14.5 | 0.00 | 0.00 | 0.00 | 80 | 1019.9 |
| 20260902095055 | 20 | 259 | 4.8 | 11.3 | 0.00 | 0.00 | 0.00 | 81 | 1019.9 |
| 20260902091055 | 20 | 242 | 11.3 | 19.3 | 0.00 | 0.00 | 0.00 | 82 | 1019.9 |
| 20260902084553 | 19 | 245 | 9.7 | 16.1 | 0.00 | 0.00 | 0.00 | 84 | 1019.9 |
| 20260902084054 | 19 | 262 | 8.0 | 14.5 | 0.00 | 0.00 | 0.00 | 85 | 1019.9 |
| 20260902075054 | 18 | 215 | 4.8 | 12.9 | 0.00 | 0.00 | 0.00 | 87 | 1019.4 |
| 20260902074554 | 18 | 229 | 4.8 | 11.3 | 0.00 | 0.00 | 0.00 | 88 | 1019.4 |
| 20260902074055 | 18 | 242 | 6.4 | 11.3 | 0.00 | 0.00 | 0.00 | 88 | 1019.4 |
| 20260902073555 | 18 | 225 | 8.0 | 14.5 | 0.00 | 0.00 | 0.00 | 88 | 1019.4 |
| 20260902073054 | 17 | 203 | 6.4 | 12.9 | 0.00 | 0.00 | 0.00 | 88 | 1019.4 |
| 20260902072554 | 17 | 233 | 8.0 | 14.5 | 0.00 | 0.00 | 0.00 | 89 | 1019.3 |
| 20260902072054 | 17 | 236 | 8.0 | 16.1 | 0.00 | 0.00 | 0.00 | 88 | 1019.2 |
| 20260902071554 | 17 | 241 | 6.4 | 14.5 | 0.00 | 0.00 | 0.00 | 88 | 1019.2 |
| 20260902071055 | 17 | 235 | 6.4 | 16.1 | 0.00 | 0.00 | 0.00 | 87 | 1019.1 |
| 20260902070054 | 17 | 223 | 4.8 | 12.9 | 0.00 | 0.00 | 0.00 | 88 | 1019.1 |
| 20260902065554 | 17 | 229 | 6.4 | 14.5 | 0.00 | 0.00 | 0.00 | 88 | 1019.0 |
| 20260902062554 | 16 | 209 | 8.0 | 14.5 | 0.00 | 0.00 | 0.00 | 91 | 1019.0 |
| 20260902062054 | 16 | 205 | 6.4 | 14.5 | 0.00 | 0.00 | 0.00 | 91 | 1018.9 |
| 20260902061554 | 16 | 212 | 6.4 | 16.1 | 0.00 | 0.00 | 0.00 | 91 | 1018.9 |
| 20260902061056 | 16 | 210 | 4.8 | 11.3 | 0.00 | 0.00 | 0.00 | 91 | 1018.9 |
| 20260902052054 | 16 | 209 | 4.8 | 14.5 | 0.00 | 0.00 | 0.00 | 90 | 1018.9 |
| 20260902050053 | 16 | 200 | 8.0 | 11.3 | 0.00 | 0.00 | 0.00 | 90 | 1018.7 |
| 20260902045554 | 16 | 201 | 4.8 | 11.3 | 0.00 | 0.00 | 0.00 | 90 | 1018.7 |
| 20260902042054 | 16 | 200 | 4.8 | 9.7 | 0.00 | 0.00 | 0.00 | 89 | 1018.7 |
| 20260902041554 | 16 | 198 | 4.8 | 11.3 | 0.00 | 0.00 | 0.00 | 89 | 1018.8 |
| 20260902041055 | 16 | 193 | 4.8 | 14.5 | 0.00 | 0.00 | 0.00 | 89 | 1018.7 |
| 20260902035054 | 16 | 205 | 3.2 | 8.0 | 0.00 | 0.00 | 0.00 | 88 | 1018.7 |
| 20260902034554 | 16 | 205 | 3.2 | 9.7 | 0.00 | 0.00 | 0.00 | 88 | 1018.8 |
| 20260902034055 | 16 | 205 | 4.8 | 11.3 | 0.00 | 0.00 | 0.00 | 88 | 1018.9 |
| 20260902033053 | 16 | 202 | 4.8 | 11.3 | 0.00 | 0.00 | 0.00 | 88 | 1018.9 |
| 20260902032554 | 16 | 202 | 8.0 | 11.3 | 0.00 | 0.00 | 0.00 | 88 | 1018.9 |
| 20260902031553 | 16 | 201 | 3.2 | 11.3 | 0.00 | 0.00 | 0.00 | 87 | 1018.9 |
| 20260902031054 | 16 | 200 | 4.8 | 11.3 | 0.00 | 0.00 | 0.00 | 87 | 1018.9 |
| 20260902024054 | 16 | 201 | 3.2 | 11.3 | 0.00 | 0.00 | 0.00 | 86 | 1019.1 |
| 20260902022554 | 16 | 218 | 1.6 | 4.8 | 0.00 | 0.00 | 0.00 | 86 | 1019.2 |
| 20260902022054 | 16 | 219 | 4.8 | 12.9 | 0.00 | 0.00 | 0.00 | 86 | 1019.3 |
| 20260902013553 | 16 | 217 | 4.8 | 9.7 | 0.00 | 0.00 | 0.00 | 85 | 1019.3 |
| 20260902012054 | 16 | 219 | 3.2 | 9.7 | 0.00 | 0.00 | 0.00 | 86 | 1019.4 |
| 20260902011553 | 16 | 219 | 4.8 | 9.7 | 0.00 | 0.00 | 0.00 | 86 | 1019.4 |
| 20260902004553 | 16 | 227 | 4.8 | 9.7 | 0.00 | 0.00 | 0.00 | 85 | 1019.5 |
| 20260902004054 | 16 | 229 | 3.2 | 8.0 | 0.00 | 0.00 | 0.00 | 85 | 1019.4 |
| 20260902003554 | 16 | 231 | 4.8 | 8.0 | 0.00 | 0.00 | 0.00 | 85 | 1019.5 |
| 20260902003054 | 16 | 232 | 3.2 | 4.8 | 0.00 | 0.00 | 0.00 | 85 | 1019.5 |
| 20260902002553 | 16 | 232 | 3.2 | 8.0 | 0.00 | 0.00 | 0.00 | 85 | 1019.5 |
| 20260902002054 | 16 | 233 | 4.8 | 8.0 | 0.00 | 0.00 | 0.00 | 85 | 1019.5 |
| 20260902001553 | 16 | 233 | 4.8 | 8.0 | 0.00 | 0.00 | 0.00 | 85 | 1019.5 |
| 20260902001054 | 16 | 234 | 1.6 | 8.0 | 0.00 | 0.00 | 0.00 | 84 | 1019.5 |
| 20260902000054 | 16 | 234 | 1.6 | 4.8 | 0.00 | 0.00 | 0.00 | 84 | 1019.7 |
| 20260901235553 | 16 | 234 | 1.6 | 4.8 | 0.00 | 0.00 | 0.00 | 84 | 1019.7 |
| 20260901235054 | 16 | 234 | 3.2 | 9.7 | 0.00 | 0.00 | 0.00 | 84 | 1019.7 |
| 20260901231553 | 16 | 242 | 1.6 | 4.8 | 0.00 | 0.00 | 0.00 | 82 | 1019.9 |
| 20260901231054 | 16 | 242 | 1.6 | 4.8 | 0.00 | 0.00 | 0.00 | 82 | 1019.9 |
| 20260901224054 | 16 | 248 | 0.0 | 4.8 | 0.00 | 0.00 | 0.00 | 83 | 1020.1 |
| 20260901223553 | 16 | 248 | 3.2 | 4.8 | 0.00 | 0.00 | 0.00 | 83 | 1020.1 |
| 20260901223053 | 16 | 248 | 0.0 | 0.0 | 0.00 | 0.00 | 0.00 | 82 | 1020.1 |
| 20260901222553 | 16 | 248 | 0.0 | 0.0 | 0.00 | 0.00 | 0.00 | 82 | 1020.1 |
| 20260901222054 | 16 | 248 | 0.0 | 1.6 | 0.00 | 0.00 | 0.00 | 82 | 1020.0 |
| 20260901221553 | 16 | 248 | 0.0 | 3.2 | 0.00 | 0.00 | 0.00 | 83 | 1019.9 |
| 20260901221053 | 16 | 248 | 1.6 | 4.8 | 0.00 | 0.00 | 0.00 | 83 | 1020.0 |
| 20260901213055 | 16 | 248 | 0.0 | 0.0 | 0.00 | 0.08 | 0.00 | 82 | 1020.0 |
| 20260901212553 | 16 | 248 | 0.0 | 0.0 | 0.00 | 0.15 | 0.00 | 81 | 1020.0 |
| 20260901205054 | 16 | 248 | 0.0 | 0.0 | 0.00 | 0.36 | 0.00 | 80 | 1020.5 |
| 20260901204553 | 16 | 248 | 0.0 | 0.0 | 0.00 | 0.36 | 0.00 | 80 | 1020.6 |
| 20260901204053 | 16 | 248 | 0.0 | 0.0 | 0.00 | 0.36 | 0.00 | 80 | 1020.6 |
| 20260901203553 | 16 | 248 | 0.0 | 0.0 | 0.00 | 0.36 | 0.00 | 80 | 1020.7 |
| 20260901203053 | 16 | 248 | 0.0 | 0.0 | 0.00 | 0.36 | 0.00 | 80 | 1020.6 |
| 20260901202553 | 16 | 248 | 0.0 | 0.0 | 0.00 | 0.36 | 0.00 | 80 | 1020.7 |
| 20260901195054 | 17 | 248 | 0.0 | 0.0 | 0.00 | 0.36 | 0.00 | 78 | 1020.5 |
| 20260901194553 | 17 | 248 | 0.0 | 0.0 | 0.00 | 0.36 | 0.00 | 77 | 1020.5 |
| 20260901193553 | 17 | 248 | 0.0 | 3.2 | 0.00 | 0.36 | 0.00 | 77 | 1020.5 |
| 20260901190053 | 17 | 248 | 0.0 | 0.0 | 0.00 | 0.36 | 0.00 | 74 | 1020.0 |
| 20260901183553 | 18 | 248 | 0.0 | 3.2 | 0.00 | 0.36 | 0.00 | 72 | 1020.0 |
| 20260901183054 | 18 | 248 | 1.6 | 4.8 | 0.00 | 0.36 | 0.00 | 72 | 1020.0 |
| 20260901181053 | 18 | 300 | 1.6 | 8.0 | 0.00 | 0.36 | 0.00 | 70 | 1020.0 |
| 20260901173553 | 20 | 269 | 6.4 | 9.7 | 0.00 | 0.36 | 0.00 | 67 | 1020.3 |
| 20260901173053 | 20 | 259 | 3.2 | 11.3 | 0.00 | 0.36 | 0.00 | 67 | 1020.4 |
| 20260901165552 | 20 | 302 | 8.0 | 11.3 | 0.00 | 0.36 | 0.00 | 66 | 1020.5 |
| 20260901164552 | 20 | 311 | 8.0 | 16.1 | 0.00 | 0.36 | 0.00 | 65 | 1020.5 |
| 20260901164053 | 20 | 304 | 6.4 | 12.9 | 0.00 | 0.36 | 0.00 | 65 | 1020.5 |